User: anonymous   Login
Location: Newark
(0.5333°S, 166.9167°E)
Time: 17:35:10
(UTC+00:00)
Language:

METEOR M2 - Orbit

View from above orbital plane
View from above orbital plane
View from above satellite
View from above satellite

Ground track
Ground track

The orbit data is extracted from the following two-line orbital elements,

1 40069U 14037A   19144.43512195 -.00000003  00000-0  18250-4 0  9997
2 40069  98.5529 190.5688 0005393 345.2543  14.8477 14.20662059252838
Epoch (UTC): 24 May 2019 10:26:34
Eccentricity: 0.0005393
inclination: 98.5529°
perigee height: 819 km
apogee height: 827 km
right ascension of ascending node: 190.5688°
argument of perigee: 345.2543°
revolutions per day: 14.20662059
mean anomaly at epoch: 14.8477°
orbit number at epoch: 25283

The dashed part of the orbit path shows where the satellite is in the earth's shadow,  

DLR